Time,TemperatureF,DewpointF,PressureIn,WindDirection,WindDirectionDegrees,WindSpeedMPH,WindSpeedGustMPH,Humidity,HourlyPrecipIn,Conditions,Clouds,dailyrainin,SoftwareType,DateUTC
2013-02-07 00:00:00,28.0,-99.9,-100.00,SSE,160,1.0,2.0,-999,-99.99,,,0.00,,2013-02-07 08:00:00,
2013-02-07 00:52:00,28.0,-99.9,-100.00,SSE,160,1.0,2.0,-999,-99.99,,,0.00,,2013-02-07 08:52:00,
2013-02-07 01:00:00,28.0,-99.9,-100.00,NE,44,1.0,2.0,-999,-99.99,,,-99.99,,2013-02-07 09:00:00,
2013-02-07 01:52:00,28.0,-99.9,-100.00,NE,44,1.0,2.0,-999,-99.99,,,-99.99,,2013-02-07 09:52:00,
2013-02-07 02:00:00,28.0,-99.9,-100.00,ESE,114,0.0,2.0,-999,-99.99,,,0.00,,2013-02-07 10:00:00,
2013-02-07 02:52:00,28.0,-99.9,-100.00,ESE,114,0.0,2.0,-999,-99.99,,,0.00,,2013-02-07 10:52:00,
2013-02-07 03:00:00,28.0,-99.9,-100.00,East,80,1.0,2.0,-999,-99.99,,,-99.99,,2013-02-07 11:00:00,
2013-02-07 03:53:00,28.0,-99.9,-100.00,East,80,1.0,2.0,-999,-99.99,,,-99.99,,2013-02-07 11:53:00,
2013-02-07 04:00:00,26.0,-99.9,-100.00,SE,144,1.0,3.0,-999,-99.99,,,0.00,,2013-02-07 12:00:00,
2013-02-07 04:53:00,26.0,-99.9,-100.00,SE,144,1.0,3.0,-999,-99.99,,,0.00,,2013-02-07 12:53:00,
2013-02-07 05:00:00,26.0,-99.9,-100.00,ENE,70,0.0,1.0,-999,-99.99,,,0.00,,2013-02-07 13:00:00,
2013-02-07 05:52:00,26.0,-99.9,-100.00,ENE,70,0.0,1.0,-999,-99.99,,,0.00,,2013-02-07 13:52:00,
2013-02-07 06:00:00,24.0,-99.9,-100.00,East,82,0.0,1.0,-999,-99.99,,,0.00,,2013-02-07 14:00:00,
2013-02-07 06:52:00,24.0,-99.9,-100.00,East,82,0.0,1.0,-999,-99.99,,,0.00,,2013-02-07 14:52:00,
2013-02-07 07:00:00,23.0,-99.9,-100.00,SSE,152,0.0,2.0,-999,-99.99,,,0.00,,2013-02-07 15:00:00,
2013-02-07 07:53:00,23.0,-99.9,-100.00,SSE,152,0.0,2.0,-999,-99.99,,,0.00,,2013-02-07 15:53:00,
2013-02-07 08:00:00,25.0,-99.9,-100.00,ENE,69,0.0,1.0,-999,-99.99,,,0.00,,2013-02-07 16:00:00,
2013-02-07 08:52:00,25.0,-99.9,-100.00,ENE,69,0.0,1.0,-999,-99.99,,,0.00,,2013-02-07 16:52:00,
2013-02-07 09:00:00,25.0,-99.9,-100.00,ESE,106,0.0,1.0,-999,-99.99,,,0.00,,2013-02-07 17:00:00,
2013-02-07 09:52:00,25.0,-99.9,-100.00,ESE,106,0.0,1.0,-999,-99.99,,,0.00,,2013-02-07 17:52:00,
2013-02-07 10:00:00,26.0,-99.9,-100.00,East,79,0.0,1.0,-999,-99.99,,,0.00,,2013-02-07 18:00:00,
2013-02-07 10:52:00,26.0,-99.9,-100.00,East,79,0.0,1.0,-999,-99.99,,,0.00,,2013-02-07 18:52:00,
2013-02-07 11:00:00,27.0,-99.9,-100.00,SSE,154,0.0,0.0,-999,-99.99,,,0.00,,2013-02-07 19:00:00,
2013-02-07 12:00:00,28.0,-99.9,-100.00,ESE,109,0.0,0.0,-999,-99.99,,,0.00,,2013-02-07 20:00:00,
2013-02-07 12:52:00,28.0,-99.9,-100.00,ESE,109,0.0,0.0,-999,-99.99,,,0.00,,2013-02-07 20:52:00,
2013-02-07 13:00:00,29.0,-99.9,-100.00,East,97,0.0,0.0,-999,-99.99,,,0.00,,2013-02-07 21:00:00,
2013-02-07 13:52:00,29.0,-99.9,-100.00,East,97,0.0,0.0,-999,-99.99,,,0.00,,2013-02-07 21:52:00,
2013-02-07 14:00:00,29.0,-99.9,-100.00,SE,127,0.0,0.0,-999,-99.99,,,0.00,,2013-02-07 22:00:00,
2013-02-07 15:00:00,27.0,-99.9,-100.00,North,354,0.0,1.0,-999,-99.99,,,0.00,,2013-02-07 23:00:00,
2013-02-07 15:52:00,27.0,-99.9,-100.00,North,354,0.0,1.0,-999,-99.99,,,0.00,,2013-02-07 23:52:00,
2013-02-07 16:00:00,26.0,-99.9,-100.00,NNW,331,0.0,3.0,-999,-99.99,,,0.01,,2013-02-08 00:00:00,
2013-02-07 16:53:00,26.0,-99.9,-100.00,NNW,331,0.0,3.0,-999,-99.99,,,0.01,,2013-02-08 00:53:00,
2013-02-07 17:00:00,25.0,-99.9,-100.00,North,-999,-999.0,-999.0,-999,-99.99,,,0.00,,2013-02-08 01:00:00,
2013-02-07 17:52:00,25.0,-99.9,-100.00,North,-999,-999.0,-999.0,-999,-99.99,,,0.00,,2013-02-08 01:52:00,
2013-02-07 18:00:00,25.0,-99.9,-100.00,NW,326,1.0,2.0,-999,-99.99,,,0.00,,2013-02-08 02:00:00,
2013-02-07 18:53:00,25.0,-99.9,-100.00,NW,326,1.0,2.0,-999,-99.99,,,0.00,,2013-02-08 02:53:00,
2013-02-07 19:00:00,23.0,-99.9,-100.00,WNW,300,3.0,7.0,-999,-99.99,,,0.00,,2013-02-08 03:00:00,
2013-02-07 19:52:00,23.0,-99.9,-100.00,WNW,300,3.0,7.0,-999,-99.99,,,0.00,,2013-02-08 03:52:00,
2013-02-07 20:00:00,23.0,-99.9,-100.00,NW,310,3.0,7.0,-999,-99.99,,,0.00,,2013-02-08 04:00:00,
2013-02-07 20:52:00,23.0,-99.9,-100.00,NW,310,3.0,7.0,-999,-99.99,,,0.00,,2013-02-08 04:52:00,
2013-02-07 21:00:00,22.0,-99.9,-100.00,WNW,289,3.0,5.0,-999,-99.99,,,0.00,,2013-02-08 05:00:00,
2013-02-07 21:52:00,22.0,-99.9,-100.00,WNW,289,3.0,5.0,-999,-99.99,,,0.00,,2013-02-08 05:52:00,
2013-02-07 22:00:00,22.0,-99.9,-100.00,NW,307,4.0,5.0,-999,-99.99,,,0.00,,2013-02-08 06:00:00,
2013-02-07 22:52:00,22.0,-99.9,-100.00,NW,307,4.0,5.0,-999,-99.99,,,0.00,,2013-02-08 06:52:00,
2013-02-07 23:00:00,21.0,-99.9,-100.00,West,276,3.0,4.0,-999,-99.99,,,0.00,,2013-02-08 07:00:00,
2013-02-07 23:52:00,21.0,-99.9,-100.00,West,276,3.0,4.0,-999,-99.99,,,0.00,,2013-02-08 07:52:00,